This is the latest recevied weather packets stored in our database for station/object W8CEN. If no packets are shown the sender has not sent any weather packets the latest 10 day(s).
| Time | Temp. | Humidity | Pressure | Rain* | Wind** | Luminosity | Snow |
|---|---|---|---|---|---|---|---|
| 1777993457 | 17.22° C | 69% | 985.5 hPa | 0 mm | - | 145 W/m² | - |
| 1777993156 | 17.22° C | 69% | 985.5 hPa | 0 mm | - | 180 W/m² | - |
| 1777992854 | 17.22° C | 70% | 985.6 hPa | 0 mm | - | 195 W/m² | - |
| 1777992552 | 17.22° C | 70% | 985.6 hPa | 0 mm | - | 120 W/m² | - |
| 1777992250 | 17.78° C | 69% | 985.2 hPa | 0 mm | - | 139 W/m² | - |
| 1777991947 | 17.78° C | 69% | 984.9 hPa | 0 mm | - | 225 W/m² | - |
| 1777991645 | 17.78° C | 68% | 984.7 hPa | 0 mm | - | 300 W/m² | - |
| 1777991341 | 17.78° C | 67% | 984.7 hPa | 0 mm | - | 284 W/m² | - |
| 1777991039 | 17.78° C | 68% | 984.4 hPa | 0 mm | - | 355 W/m² | - |
| 1777990736 | 17.78° C | 68% | 984.3 hPa | 0 mm | - | 402 W/m² | - |
| 1777990433 | 17.78° C | 68% | 984.2 hPa | 0 mm | - | 396 W/m² | - |
| 1777989826 | 17.78° C | 69% | 984.5 hPa | 0 mm | - | 292 W/m² | - |
| 1777989523 | 17.78° C | 69% | 984.5 hPa | 0 mm | - | 416 W/m² | - |
| 1777989219 | 17.22° C | 70% | 984.2 hPa | 0 mm | - | 390 W/m² | - |
| 1777988915 | 17.78° C | 70% | 984.3 hPa | 0 mm | - | 365 W/m² | - |
| 1777988613 | 17.22° C | 71% | 984.4 hPa | 0 mm | - | 426 W/m² | - |
| 1777988309 | 17.22° C | 70% | 984.6 hPa | 0 mm | - | 335 W/m² | - |
| 1777988006 | 17.22° C | 71% | 984.6 hPa | 0 mm | - | 379 W/m² | - |
| 1777987701 | 16.67° C | 71% | 984.3 hPa | 0 mm | - | 331 W/m² | - |
| 1777987399 | 16.67° C | 71% | 984.3 hPa | 0 mm | - | 308 W/m² | - |
| 1777987096 | 17.22° C | 71% | 984.2 hPa | 0 mm | - | 300 W/m² | - |
| 1777986794 | 17.22° C | 70% | 984.2 hPa | 0 mm | - | 312 W/m² | - |
| 1777986491 | 17.22° C | 71% | 984.2 hPa | 0 mm | - | 311 W/m² | - |
| 1777986189 | 16.67° C | 70% | 983.8 hPa | 0 mm | - | 308 W/m² | - |
| 1777985886 | 16.67° C | 71% | 984 hPa | 0 mm | - | 305 W/m² | - |
* Rain latest hour (hover to see other rain measurements)
** Current wind speed in m/s (hover to see current wind gust speed)